Flag for Liberia Weather past 2 weeks in Monrovia, Liberia

Now
75 °F

Passing clouds.


Feels Like: 74 °F
Forecast: 78 / 88 °F
Wind: No wind

Location: Roberts Field


UV Index: 3 (Moderate)

Visibility: N/A


Pressure: 29.86 "Hg

Humidity: 94%

Dew point: 73 °F

Location of MonroviaLocation

Historic Weather in Monrovia

°F

Monrovia temperature yesterday

Maximum temperature yesterday: 84 °F (at 10:00 AM)
Minimum temperature yesterday: 75 °F (at 6:00 AM)
Average temperature yesterday: 79 °F

Past Weeks' High & Low Weather Summary

 TemperatureHumidityPressure
High91 °F (Apr 5, 3:00 PM)100% (Apr 7, 4:30 AM)29.98 "Hg (Apr 7, 4:30 AM)
Low70 °F (Apr 14, 5:00 AM)46% (Apr 13, 12:00 PM)29.74 "Hg (Apr 16, 5:00 PM)
Average81 °F82%29.87 "Hg
* Reported Apr 5 6:00 AM — Apr 20 6:00 AM, Monrovia, Weather by CustomWeather, © 2014

Note: Actual official high and low records may vary slightly from our data, if they occured in-between our weather recording intervals... More about our weather records

Advertising

Historic Weather Conditions — Data for Previous 24 hours

 ConditionsComfort  
Time TempWeatherWind HumidityBarometerVisibility
6:00 AM
Apr 20
75 °FPassing clouds.No wind94%29.86 "HgN/A
5:30 AM75 °FPassing clouds.No wind94%29.86 "HgN/A
5:00 AM75 °FPassing clouds.No wind94%29.86 "HgN/A
4:30 AM75 °FPassing clouds.No wind94%29.86 "HgN/A
3:30 AM75 °FPassing clouds.No wind94%29.86 "HgN/A
2:30 AM75 °FPassing clouds.No wind94%29.86 "HgN/A
1:00 AM77 °FPassing clouds.No wind89%29.89 "HgN/A
12:30 AM77 °FPassing clouds.No wind89%29.89 "HgN/A
12:00 AM77 °FPassing clouds.No wind89%29.89 "HgN/A
11:30 PM
Apr 19
77 °FPassing clouds.No wind89%29.89 "HgN/A
11:00 PM77 °FPassing clouds.No wind89%29.92 "HgN/A
10:30 PM77 °FPassing clouds.No wind94%29.92 "HgN/A
10:00 PM77 °FPassing clouds.No wind94%29.89 "HgN/A
9:30 PM77 °FPassing clouds.No wind94%29.89 "HgN/A
9:00 PM77 °FPassing clouds.No wind94%29.89 "HgN/A
8:30 PM79 °FPassing clouds.No wind94%29.89 "HgN/A
8:00 PM79 °FPassing clouds.No wind94%29.86 "HgN/A
7:30 PM79 °FPassing clouds.No wind84%29.86 "HgN/A
7:00 PM79 °FPassing clouds.No wind84%29.83 "HgN/A
6:30 PM81 °FPassing clouds.No wind84%29.86 "HgN/A
6:00 PM81 °FPassing clouds.No wind84%29.83 "HgN/A
5:30 PM81 °FPassing clouds.3 mph79%29.83 "HgN/A
5:00 PM82 °FPassing clouds.7 mph79%29.83 "HgN/A
4:30 PM82 °FPassing clouds.5 mph74%29.83 "HgN/A
4:00 PM82 °FPassing clouds.6 mph74%29.83 "HgN/A
3:30 PM81 °FScattered clouds.6 mph79%29.83 "HgN/A
3:00 PM81 °FScattered clouds.3 mph84%29.83 "HgN/A
2:30 PM79 °FScattered clouds.6 mph84%29.83 "HgN/A
2:00 PM79 °FScattered clouds.7 mph84%29.86 "HgN/A
1:30 PM79 °FRain. Scattered clouds.8 mph84%29.86 "HgN/A
1:00 PM75 °FLight rain. Scattered clouds.8 mph94%29.86 "Hg6 mi
12:00 PM75 °FThunderstorms. Low clouds.No wind94%29.89 "Hg6 mi
11:30 AM75 °FThunderstorms. Low clouds.No wind94%29.92 "Hg6 mi
11:00 AM75 °FThunderstorms. Partly sunny.5 mph94%29.92 "Hg4 mi
10:30 AM81 °FThunderstorms. Broken clouds.16 mph79%29.98 "Hg2 mi
10:00 AM84 °FPartly sunny.8 mph74%29.95 "HgN/A
9:30 AM82 °FPartly sunny.9 mph79%29.92 "HgN/A
9:00 AM81 °FPartly sunny.8 mph79%29.89 "HgN/A
8:30 AM77 °FPartly sunny.8 mph83%29.89 "HgN/A
8:00 AM77 °FScattered clouds.6 mph83%29.89 "HgN/A
7:30 AM75 °FPassing clouds.6 mph94%29.89 "HgN/A
7:00 AM75 °FPassing clouds.No wind89%29.86 "HgN/A
Weather by CustomWeather, © 2014

See weather overview